Location: Carbonear
(47.7333°N, 53.2500°W)
Time: 12:40:27
(UTC+00:00)

XW-2B - Visible Passes

Search period start: 08 December 2022 00:00
Search period end: 18 December 2022 00:00
Orbit: 490 x 509 km, 97.5° (Epoch: 08 December)

Date Brightness Start Highest point End Pass type
(mag) Time Alt. Az. Time Alt. Az. Time Alt. Az.
08 Dec ? 09:00:28 10° NE 09:03:13 20° E 09:05:58 10° SE visible
08 Dec ? 21:14:35 10° S 21:18:06 44° W 21:21:37 10° NNW visible
09 Dec ? 08:41:48 10° ENE 08:43:22 12° E 08:44:57 10° ESE visible
09 Dec ? 10:13:53 10° N 10:17:27 54° WNW 10:21:00 10° SSW visible
09 Dec ? 20:54:44 10° S 20:58:23 78° WSW 21:02:03 10° NNW visible
10 Dec ? 09:54:09 10° NNE 09:57:48 87° E 10:01:27 10° SSW visible
10 Dec ? 20:35:08 10° SSE 20:38:44 60° ENE 20:42:20 10° N visible
10 Dec ? 22:11:43 10° WSW 22:12:51 11° W 22:13:59 10° WNW visible
11 Dec ? 09:34:32 10° NNE 09:38:05 49° E 09:41:37 10° S visible
11 Dec ? 20:15:45 10° SE 20:19:06 35° ENE 20:22:27 10° N visible
11 Dec ? 21:50:22 10° SW 21:52:58 18° W 21:55:34 10° NW visible
12 Dec ? 09:15:05 10° NE 09:18:18 29° E 09:21:30 10° SSE visible
12 Dec ? 21:29:53 10° SSW 21:33:07 30° W 21:36:22 10° NNW visible
13 Dec ? 08:55:53 10° NE 08:58:27 18° E 09:01:00 10° SE visible
13 Dec ? 10:28:57 10° N 10:32:19 36° WNW 10:35:41 10° SW visible
13 Dec ? 21:09:46 10° S 21:13:19 50° W 21:16:53 10° NNW visible
14 Dec ? 08:37:31 10° ENE 08:38:31 11° E 08:39:31 10° ESE visible
14 Dec ? 10:09:03 10° N 10:12:39 62° WNW 10:16:16 10° SSW visible
14 Dec ? 20:49:55 10° SSE 20:53:34 89° W 20:57:13 10° NNW visible
15 Dec ? 09:49:16 10° NNE 09:52:55 76° ESE 09:56:35 10° S visible
15 Dec ? 20:30:18 10° SSE 20:33:50 52° ENE 20:37:23 10° N visible
15 Dec ? 22:06:13 10° WSW 22:07:53 13° W 22:09:34 10° WNW visible
16 Dec ? 09:29:37 10° NNE 09:33:07 42° E 09:36:37 10° S visible
16 Dec ? 21:45:09 10° SW 21:47:57 21° W 21:50:45 10° NW visible
17 Dec ? 09:10:10 10° NE 09:13:16 25° E 09:16:21 10° SSE visible
17 Dec ? 21:24:43 10° SSW 21:28:03 34° W 21:31:24 10° NNW visible
